Погода в Титове

Россия / Пензенская область     53°16′35″N   43°40′32″E
темп.,
°C
ветер,
м/с
пор.,
м/с
влажн.,
%
обл.,
%
осадки,
мм/ч
давл.,
гПа
погр.,
м
4 марта, чт
чт400:00−5зюз6129690 0.1 1011359
03:00−3зюз6129591 0.1 1010576
06:00−3зюз81493100 0.1 1007749
09:00−2зюз91593100 0.3 1005768
12:000зюз101790100 0.1 1003964
15:000зюз91590100 0.2 10031131
18:00−1зюз71394100 0.3 1002844
21:00−1зюз61295100 0.4 1002658
5 марта, пт
пт500:00−1зюз51197100 0.4 1001566
03:00−1зсз4998100 1.3 1001466
06:00−4с4796100 0.8 1002261
09:00−4с3696100 1.1 1005310
12:00−3ссз239099 0.0 1007364
15:00−3ссз348899 0.0 1009550
18:00−9зсз129349 0.0 101021
21:00−9з239355 0.0 101221
6 марта, сб
сб600:00−10зсз2392100 0.0 101322
03:00−10зсз3395100 0.0 101433
06:00−12ссз3495100 0.0 101448
09:00−11ссз3695100 0.0 1015177
12:00−8ссз468933 0.0 1015329
15:00−7сз368717 0.0 1015560
18:00−9зсз349582 0.1 101665
21:00−14ссз349057 0.1 101734
7 марта, вс
вс700:00−16сз23920 0.0 101820
03:00−16зюз229236 0.0 101720
06:00−15ююз479773 0.0 1016100
09:00−10юз6139384 0.1 1014447
12:00−6юз91482100 0.1 1010855
15:00−5юз101678100 0.1 10061039
18:00−5юз122092100 0.4 10021270
21:00−4юз111893100 1.8 9991180
8 марта, пн
пн800:00−3з91491100 1.5 998918
03:00−8зюз51285100 1.6 1000290
06:00−11юз512892 0.0 1000259
09:00−7з8129051 0.5 1001952
12:00−6з81279100 0.3 10031227
15:00−7з698167 0.3 10051020
18:00−10з498919 0.0 1008146
21:00−14з459525 0.0 101085